P/2010 J3 ( McMillan )

Japanese version
Home page
Updated on October 3, 2011

---------------------------------------------------------------------

* Profile

Discovery Date May 12, 2010
Magnitude 17.8 mag
Discoverer R. S. McMillan (Spacewatch)

* Pictures

* Orbital Elements

Epoch 2010 Sept. 1.0 TT = JDT 2455440.5
T 2010 Aug. 23.48147 TT                                 MPC
q   2.4551022            (2000.0)            P               Q
n   0.03659510     Peri.  157.31873     -0.09504652     +0.97093415
a   8.9850557      Node   106.66053     -0.94488866     -0.01854615
e   0.7267571      Incl.   13.25535     -0.31329152     -0.23862715
P  26.9
From 491 observations 2010 Feb. 3-2011 Sept. 20, mean residual 0".5.

* Finding Charts

* Magnitudes Graph

        m1 = 11.8 + 5 log d + 10.0 log r

---------------------------------------------------------------------

The orbital elements are published on M.P.E.C. 2011-S56.
The charts are made with StellaNavigator Ver.8 (AstroArts).
The magnitudes graphs are made with Comet for Windows.

---------------------------------------------------------------------

Copyright(C) Seiichi Yoshida (comet@aerith.net). All rights reserved.